,,,PA_Meas_PMT16A,,PR_Meas_QMR101_102,,RH_Meas_QMH101,,SR_Meas_QMS101,,TA_Meas_QMH101,,GenWind,,GenWind,
date,time,status,PA,status,PR,status,RH,status,SR,status,TA,status,DirAvg,status,SpdAvg,
2009-05-28, 00:00:05,VALID,1003.31,VALID,0,VALID,93.2478,VALID,0,VALID,24.4609,VALID,70,VALID,0.335156,
2009-05-28, 00:01:05,VALID,1003.29,VALID,0,VALID,93.2249,VALID,0.100563,VALID,24.4609,VALID,72,VALID,0.353906,
2009-05-28, 00:02:05,VALID,1003.28,VALID,0,VALID,93.2631,VALID,0,VALID,24.4609,VALID,72,VALID,0.0351563,
2009-05-28, 00:03:05,VALID,1003.28,VALID,0,VALID,93.2859,VALID,0,VALID,24.4628,VALID,73,VALID,0.21875,
2009-05-28, 00:04:05,VALID,1003.28,VALID,0,VALID,93.3165,VALID,0,VALID,24.4609,VALID,73,VALID,0,
2009-05-28, 00:05:05,VALID,1003.25,VALID,0,VALID,93.3317,VALID,0.100563,VALID,24.4609,VALID,73,VALID,0,
2009-05-28, 00:06:05,VALID,1003.22,VALID,0,VALID,93.3546,VALID,0,VALID,24.4609,VALID,73,VALID,0.366016,
2009-05-28, 00:07:05,VALID,1003.2,VALID,0,VALID,93.3775,VALID,0,VALID,24.4609,VALID,73,VALID,0.204297,
2009-05-28, 00:08:05,VALID,1003.19,VALID,0,VALID,93.3622,VALID,0.100563,VALID,24.4609,VALID,73,VALID,0.0683594,
2009-05-28, 00:09:05,VALID,1003.19,VALID,0,VALID,93.3775,VALID,0,VALID,24.4609,VALID,73,VALID,0.383594,
2009-05-28, 00:10:05,VALID,1003.16,VALID,0,VALID,93.3851,VALID,0,VALID,24.4414,VALID,73,VALID,0.303125,
2009-05-28, 00:11:05,VALID,1003.18,VALID,0,VALID,93.4309,VALID,0,VALID,24.4414,VALID,73,VALID,0.0535156,
2009-05-28, 00:12:05,VALID,1003.18,VALID,0,VALID,93.4843,VALID,0,VALID,24.4628,VALID,73,VALID,0.0582031,
2009-05-28, 00:13:05,VALID,1003.18,VALID,0,VALID,93.4919,VALID,0,VALID,24.4628,VALID,73,VALID,0.00546875,
2009-05-28, 00:14:05,VALID,1003.17,VALID,0,VALID,93.5148,VALID,0,VALID,24.4822,VALID,73,VALID,0.185156,
2009-05-28, 00:15:05,VALID,1003.18,VALID,0,VALID,93.5148,VALID,0,VALID,24.5017,VALID,73,VALID,0.258594,
2009-05-28, 00:16:05,VALID,1003.17,VALID,0,VALID,93.469,VALID,0,VALID,24.5212,VALID,73,VALID,0.406641,
2009-05-28, 00:17:05,VALID,1003.21,VALID,0,VALID,93.4004,VALID,0,VALID,24.5212,VALID,73,VALID,0.540234,
2009-05-28, 00:18:05,VALID,1003.2,VALID,0,VALID,93.3394,VALID,0,VALID,24.5193,VALID,73,VALID,0.381641,
2009-05-28, 00:19:05,VALID,1003.2,VALID,0,VALID,93.3241,VALID,0,VALID,24.5406,VALID,73,VALID,0.190625,
2009-05-28, 00:20:05,VALID,1003.21,VALID,0,VALID,93.2859,VALID,0,VALID,24.5601,VALID,73,VALID,0.379687,
2009-05-28, 00:21:05,VALID,1003.2,VALID,0,VALID,93.2173,VALID,0,VALID,24.5601,VALID,73,VALID,0.482812,
2009-05-28, 00:22:05,VALID,1003.23,VALID,0,VALID,93.1715,VALID,0,VALID,24.5582,VALID,73,VALID,0.187109,
2009-05-28, 00:23:05,VALID,1003.25,VALID,0,VALID,93.1715,VALID,0,VALID,24.6204,VALID,73,VALID,0.441016,
2009-05-28, 00:24:05,VALID,1003.2,VALID,0,VALID,93.141,VALID,0,VALID,24.6185,VALID,73,VALID,0.1875,
2009-05-28, 00:25:05,VALID,1003.22,VALID,0,VALID,93.1257,VALID,0,VALID,24.599,VALID,73,VALID,0.176953,
2009-05-28, 00:26:05,VALID,1003.17,VALID,0,VALID,93.1029,VALID,0,VALID,24.599,VALID,72,VALID,0.326172,
2009-05-28, 00:27:05,VALID,1003.16,VALID,0,VALID,93.1029,VALID,0,VALID,24.599,VALID,72,VALID,0.269922,
2009-05-28, 00:28:05,VALID,1003.11,VALID,0,VALID,93.1029,VALID,0,VALID,24.638,VALID,72,VALID,0.328906,
2009-05-28, 00:29:05,VALID,1003.09,VALID,0,VALID,93.141,VALID,0,VALID,24.6574,VALID,72,VALID,0.242578,
2009-05-28, 00:30:05,VALID,1003.05,VALID,0,VALID,93.08,VALID,0,VALID,24.6556,VALID,64,VALID,0.682422,
2009-05-28, 00:31:05,VALID,1003.06,VALID,0,VALID,93.0266,VALID,0,VALID,24.7353,VALID,23,VALID,0.585156,
2009-05-28, 00:32:05,VALID,1003.02,VALID,0,VALID,92.8664,VALID,0,VALID,24.7548,VALID,23,VALID,0.475391,
2009-05-28, 00:33:05,VALID,1003,VALID,0,VALID,92.7672,VALID,0,VALID,24.7743,VALID,23,VALID,0.396094,
2009-05-28, 00:34:05,VALID,1003.01,VALID,0,VALID,92.6528,VALID,0,VALID,24.7743,VALID,24,VALID,0.504687,
2009-05-28, 00:35:05,VALID,1003.02,VALID,0,VALID,92.5612,VALID,0,VALID,24.7937,VALID,24,VALID,0.319141,
2009-05-28, 00:36:05,VALID,1003.01,VALID,0,VALID,92.4468,VALID,0,VALID,24.7937,VALID,42,VALID,0.345703,
2009-05-28, 00:37:05,VALID,1003.02,VALID,0,VALID,92.4544,VALID,0,VALID,24.8132,VALID,72,VALID,0.34375,
2009-05-28, 00:38:05,VALID,1003.03,VALID,0,VALID,92.4163,VALID,0,VALID,24.8327,VALID,94,VALID,0.398828,
2009-05-28, 00:39:05,VALID,1003.06,VALID,0,VALID,92.34,VALID,0,VALID,24.8716,VALID,94,VALID,0.785937,
2009-05-28, 00:40:05,VALID,1003.05,VALID,0,VALID,92.1492,VALID,0,VALID,24.93,VALID,95,VALID,0.591016,
2009-05-28, 00:41:05,VALID,1003.07,VALID,0,VALID,91.8822,VALID,0,VALID,25.0274,VALID,97,VALID,0.491406,
2009-05-28, 00:42:05,VALID,1003.1,VALID,0,VALID,91.4932,VALID,0,VALID,25.1442,VALID,96,VALID,0.315625,
2009-05-28, 00:43:05,VALID,1003.1,VALID,0,VALID,90.9134,VALID,0,VALID,25.2416,VALID,105,VALID,0.883594,
2009-05-28, 00:44:05,VALID,1003.14,VALID,0,VALID,90.4022,VALID,0,VALID,25.3779,VALID,111,VALID,0.408984,
2009-05-28, 00:45:05,VALID,1003.18,VALID,0,VALID,89.7996,VALID,0,VALID,25.4753,VALID,112,VALID,1.0668,
2009-05-28, 00:46:05,VALID,1003.13,VALID,0,VALID,89.1053,VALID,0,VALID,25.6311,VALID,124,VALID,2.11523,
2009-05-28, 00:47:05,VALID,1003.15,VALID,0,VALID,88.434,VALID,0,VALID,25.7674,VALID,110,VALID,0.983594,
2009-05-28, 00:48:05,VALID,1003.17,VALID,0,VALID,88.0449,VALID,0,VALID,25.8668,VALID,98,VALID,1.79922,
2009-05-28, 00:49:05,VALID,1003.08,VALID,0,VALID,87.3736,VALID,0,VALID,25.9817,VALID,68,VALID,2.15781,
2009-05-28, 00:50:05,VALID,1003.1,VALID,0,VALID,86.8929,VALID,0,VALID,26.0985,VALID,115,VALID,2.57266,
2009-05-28, 00:51:05,VALID,1003.1,VALID,0,VALID,86.6946,VALID,0,VALID,26.0985,VALID,86,VALID,1.61211,
2009-05-28, 00:52:05,VALID,1003.05,VALID,0,VALID,86.1453,VALID,0,VALID,26.118,VALID,105,VALID,1.33984,
2009-05-28, 00:53:05,VALID,1003.03,VALID,0,VALID,85.9088,VALID,0,VALID,26.1784,VALID,123,VALID,2.04609,
2009-05-28, 00:54:05,VALID,1002.97,VALID,0,VALID,85.9622,VALID,0,VALID,26.1375,VALID,84,VALID,1.18516,
2009-05-28, 00:55:05,VALID,1002.95,VALID,0,VALID,86.0461,VALID,0,VALID,26.118,VALID,81,VALID,1.22578,
2009-05-28, 00:56:05,VALID,1002.94,VALID,0,VALID,86.0309,VALID,0,VALID,26.118,VALID,96,VALID,0.464063,
2009-05-28, 00:57:05,VALID,1002.91,VALID,0,VALID,86.1987,VALID,0,VALID,26.12,VALID,98,VALID,0.285937,
2009-05-28, 00:58:05,VALID,1002.87,VALID,0,VALID,86.2445,VALID,0,VALID,26.0596,VALID,93,VALID,0.385156,
2009-05-28, 00:59:05,VALID,1002.84,VALID,0,VALID,86.0385,VALID,0,VALID,26.0596,VALID,78,VALID,0.827734,
2009-05-28, 01:00:05,VALID,1002.82,VALID,0,VALID,85.9927,VALID,0,VALID,26.0401,VALID,80,VALID,0.233594,
2009-05-28, 01:01:05,VALID,1002.79,VALID,0,VALID,86.0614,VALID,0,VALID,26.0401,VALID,80,VALID,0.197656,
2009-05-28, 01:02:05,VALID,1002.86,VALID,0,VALID,86.0767,VALID,0,VALID,26.0401,VALID,88,VALID,0.824609,
2009-05-28, 01:03:05,VALID,1002.91,VALID,0,VALID,86.4047,VALID,0,VALID,26.0012,VALID,81,VALID,1.15117,
2009-05-28, 01:04:05,VALID,1002.93,VALID,0,VALID,86.8624,VALID,0,VALID,25.9447,VALID,65,VALID,1.00781,
2009-05-28, 01:05:05,VALID,1002.94,VALID,0,VALID,87.0913,VALID,0,VALID,25.8668,VALID,87,VALID,1.03555,
2009-05-28, 01:06:05,VALID,1002.93,VALID,0,VALID,86.9082,VALID,0,VALID,25.8453,VALID,91,VALID,1.21914,
2009-05-28, 01:07:05,VALID,1002.93,VALID,0,VALID,86.8014,VALID,0,VALID,25.8648,VALID,104,VALID,1.62383,
2009-05-28, 01:08:05,VALID,1002.92,VALID,0,VALID,86.7404,VALID,0,VALID,25.8668,VALID,82,VALID,1.12109,
2009-05-28, 01:09:05,VALID,1002.97,VALID,0,VALID,86.7861,VALID,0,VALID,25.8453,VALID,57,VALID,0.736719,
2009-05-28, 01:10:05,VALID,1002.96,VALID,0,VALID,87.0303,VALID,0,VALID,25.8259,VALID,129,VALID,1.26719,
2009-05-28, 01:11:05,VALID,1002.97,VALID,0,VALID,86.8701,VALID,0,VALID,25.7869,VALID,115,VALID,1.31016,
2009-05-28, 01:12:05,VALID,1002.98,VALID,0,VALID,86.9921,VALID,0,VALID,25.785,VALID,53,VALID,0.842578,
2009-05-28, 01:13:05,VALID,1003,VALID,0,VALID,86.5954,VALID,0,VALID,25.748,VALID,92,VALID,1.59492,
2009-05-28, 01:14:05,VALID,1003,VALID,0,VALID,86.1606,VALID,0,VALID,25.7674,VALID,117,VALID,1.44102,
2009-05-28, 01:15:05,VALID,1002.96,VALID,0,VALID,84.4593,VALID,0,VALID,25.748,VALID,112,VALID,1.89023,
2009-05-28, 01:16:05,VALID,1002.99,VALID,0,VALID,85.1383,VALID,0,VALID,25.7869,VALID,107,VALID,1.08359,
2009-05-28, 01:17:05,VALID,1002.95,VALID,0,VALID,85.0468,VALID,0,VALID,25.7674,VALID,126,VALID,1.3332,
2009-05-28, 01:18:05,VALID,1002.94,VALID,0,VALID,84.9552,VALID,0,VALID,25.7674,VALID,127,VALID,0.933984,
2009-05-28, 01:19:05,VALID,1002.96,VALID,0,VALID,85.2299,VALID,0,VALID,25.7071,VALID,127,VALID,0.889844,
2009-05-28, 01:20:05,VALID,1002.96,VALID,0,VALID,84.4746,VALID,0,VALID,25.67,VALID,122,VALID,1.70078,
2009-05-28, 01:21:05,VALID,1002.94,VALID,0,VALID,84.2991,VALID,0,VALID,25.67,VALID,122,VALID,1.63125,
2009-05-28, 01:22:05,VALID,1002.95,VALID,0,VALID,84.2534,VALID,0,VALID,25.672,VALID,142,VALID,1.56758,
2009-05-28, 01:23:05,VALID,1002.93,VALID,0,VALID,84.116,VALID,0,VALID,25.6292,VALID,106,VALID,1.32813,
2009-05-28, 01:24:05,VALID,1002.96,VALID,0,VALID,83.994,VALID,0,VALID,25.5902,VALID,134,VALID,1.14844,
2009-05-28, 01:25:05,VALID,1002.98,VALID,0,VALID,84.1237,VALID,0,VALID,25.5707,VALID,101,VALID,0.613281,
2009-05-28, 01:26:05,VALID,1002.96,VALID,0,VALID,84.1389,VALID,0,VALID,25.5532,VALID,121,VALID,1.01211,
2009-05-28, 01:27:05,VALID,1002.96,VALID,0,VALID,83.8109,VALID,0,VALID,25.5532,VALID,98,VALID,1.40039,
2009-05-28, 01:28:05,VALID,1002.95,VALID,0,VALID,83.9024,VALID,0,VALID,25.5532,VALID,120,VALID,1.17734,
2009-05-28, 01:29:05,VALID,1002.93,VALID,0,VALID,84.4136,VALID,0,VALID,25.5513,VALID,126,VALID,1.16797,
2009-05-28, 01:30:05,VALID,1002.93,VALID,0,VALID,84.3296,VALID,0,VALID,25.5532,VALID,109,VALID,1.65898,
2009-05-28, 01:31:05,VALID,1002.92,VALID,0,VALID,84.8789,VALID,0,VALID,25.5532,VALID,105,VALID,1.18164,
2009-05-28, 01:32:05,VALID,1002.96,VALID,0,VALID,85.0239,VALID,0,VALID,25.4753,VALID,88,VALID,1.29414,
2009-05-28, 01:33:05,VALID,1002.94,VALID,0,VALID,85.3595,VALID,0,VALID,25.4753,VALID,100,VALID,1.12344,
2009-05-28, 01:34:05,VALID,1002.92,VALID,0,VALID,85.7105,VALID,0,VALID,25.4363,VALID,130,VALID,1.7957,
2009-05-28, 01:35:05,VALID,1002.89,VALID,0,VALID,85.7562,VALID,0,VALID,25.3974,VALID,112,VALID,1.26289,
2009-05-28, 01:36:05,VALID,1002.88,VALID,0,VALID,85.6723,VALID,0,VALID,25.3779,VALID,117,VALID,1.99063,
2009-05-28, 01:37:05,VALID,1002.88,VALID,0,VALID,85.9165,VALID,0,VALID,25.3779,VALID,115,VALID,1.84414,
2009-05-28, 01:38:05,VALID,1002.86,VALID,0,VALID,86.0385,VALID,0,VALID,25.3584,VALID,101,VALID,1.55156,
2009-05-28, 01:39:05,VALID,1002.87,VALID,0,VALID,85.7715,VALID,0,VALID,25.3584,VALID,127,VALID,1.55898,
2009-05-28, 01:40:05,VALID,1002.87,VALID,0,VALID,85.9775,VALID,0,VALID,25.339,VALID,102,VALID,0.610937,
2009-05-28, 01:41:05,VALID,1002.84,VALID,0,VALID,86.3513,VALID,0,VALID,25.3,VALID,110,VALID,1.47344,
2009-05-28, 01:42:05,VALID,1002.84,VALID,0,VALID,86.3666,VALID,0,VALID,25.2397,VALID,141,VALID,1.32578,
2009-05-28, 01:43:05,VALID,1002.83,VALID,0,VALID,86.4276,VALID,0,VALID,25.2397,VALID,119,VALID,0.835938,
2009-05-28, 01:44:05,VALID,1002.81,VALID,0,VALID,86.2903,VALID,0,VALID,25.2202,VALID,114,VALID,1.23047,
2009-05-28, 01:45:05,VALID,1002.81,VALID,0,VALID,86.5649,VALID,0,VALID,25.2397,VALID,107,VALID,1.52188,
2009-05-28, 01:46:05,VALID,1002.78,VALID,0,VALID,86.3284,VALID,0,VALID,25.2202,VALID,96,VALID,1.98164,
2009-05-28, 01:47:05,VALID,1002.78,VALID,0,VALID,86.5878,VALID,0,VALID,25.2397,VALID,116,VALID,1.22461,
2009-05-28, 01:48:05,VALID,1002.79,VALID,0,VALID,86.6641,VALID,0,VALID,25.2007,VALID,101,VALID,0.988672,
2009-05-28, 01:49:05,VALID,1002.78,VALID,0,VALID,86.7099,VALID,0,VALID,25.2007,VALID,120,VALID,1.49609,
2009-05-28, 01:50:05,VALID,1002.78,VALID,0,VALID,86.8701,VALID,0,VALID,25.2221,VALID,133,VALID,1.64883,
2009-05-28, 01:51:05,VALID,1002.76,VALID,0,VALID,87.0532,VALID,0,VALID,25.1813,VALID,117,VALID,0.44375,
2009-05-28, 01:52:05,VALID,1002.76,VALID,0,VALID,87.1828,VALID,0,VALID,25.1832,VALID,122,VALID,0.490234,
2009-05-28, 01:53:05,VALID,1002.76,VALID,0,VALID,87.2744,VALID,0,VALID,25.1423,VALID,129,VALID,1.08438,
2009-05-28, 01:54:05,VALID,1002.71,VALID,0,VALID,87.427,VALID,0,VALID,25.1423,VALID,118,VALID,0.931641,
2009-05-28, 01:55:05,VALID,1002.75,VALID,0,VALID,87.4956,VALID,0,VALID,25.1423,VALID,128,VALID,0.843359,
2009-05-28, 01:56:05,VALID,1002.75,VALID,0,VALID,87.6253,VALID,0,VALID,25.1423,VALID,113,VALID,1.22852,
2009-05-28, 01:57:05,VALID,1002.72,VALID,0,VALID,87.7169,VALID,0,VALID,25.1637,VALID,101,VALID,0.931641,
2009-05-28, 01:58:05,VALID,1002.71,VALID,0,VALID,87.8389,VALID,0,VALID,25.1248,VALID,104,VALID,0.942187,
2009-05-28, 01:59:05,VALID,1002.69,VALID,0,VALID,87.9686,VALID,0,VALID,25.1053,VALID,117,VALID,0.714063,
2009-05-28, 02:00:05,VALID,1002.68,VALID,0,VALID,88.0602,VALID,0,VALID,25.0839,VALID,93,VALID,0.510156,
2009-05-28, 02:01:05,VALID,1002.63,VALID,0,VALID,88.289,VALID,0,VALID,25.1053,VALID,118,VALID,1.01133,
2009-05-28, 02:02:05,VALID,1002.63,VALID,0,VALID,88.3501,VALID,0,VALID,25.0839,VALID,116,VALID,0.626562,
2009-05-28, 02:03:05,VALID,1002.59,VALID,0,VALID,88.3577,VALID,0,VALID,25.1053,VALID,114,VALID,1.31875,
2009-05-28, 02:04:05,VALID,1002.58,VALID,0,VALID,88.4416,VALID,0,VALID,25.1053,VALID,117,VALID,0.861328,
2009-05-28, 02:05:05,VALID,1002.59,VALID,0,VALID,88.4264,VALID,0,VALID,25.0839,VALID,110,VALID,0.823438,
2009-05-28, 02:06:05,VALID,1002.57,VALID,0,VALID,88.3882,VALID,0,VALID,25.0858,VALID,99,VALID,0.828516,
2009-05-28, 02:07:05,VALID,1002.58,VALID,0,VALID,88.1212,VALID,0,VALID,25.0858,VALID,82,VALID,1.08828,
2009-05-28, 02:08:05,VALID,1002.57,VALID,0,VALID,88.0983,VALID,0,VALID,25.0858,VALID,93,VALID,1.15273,
2009-05-28, 02:09:05,VALID,1002.55,VALID,0,VALID,88.1517,VALID,0,VALID,25.1053,VALID,99,VALID,0.595312,
2009-05-28, 02:10:05,VALID,1002.57,VALID,0,VALID,88.1288,VALID,0,VALID,25.0858,VALID,69,VALID,0.345313,
2009-05-28, 02:11:05,VALID,1002.56,VALID,0,VALID,88.1975,VALID,0,VALID,25.045,VALID,44,VALID,0.814453,
2009-05-28, 02:12:05,VALID,1002.54,VALID,0,VALID,87.9686,VALID,0,VALID,25.0663,VALID,66,VALID,0.688672,
2009-05-28, 02:13:05,VALID,1002.54,VALID,0,VALID,87.8694,VALID,0,VALID,25.045,VALID,75,VALID,0.276172,
2009-05-28, 02:14:05,VALID,1002.54,VALID,0,VALID,87.755,VALID,0,VALID,25.0663,VALID,75,VALID,0.233594,
2009-05-28, 02:15:05,VALID,1002.5,VALID,0,VALID,87.5567,VALID,0,VALID,25.0858,VALID,92,VALID,0.523438,
2009-05-28, 02:16:05,VALID,1002.52,VALID,0,VALID,87.5567,VALID,0,VALID,25.045,VALID,92,VALID,0.344531,
2009-05-28, 02:17:05,VALID,1002.51,VALID,0,VALID,87.3965,VALID,0,VALID,25.0663,VALID,92,VALID,0.319141,
2009-05-28, 02:18:05,VALID,1002.51,VALID,0,VALID,87.3125,VALID,0,VALID,25.045,VALID,92,VALID,0.794922,
2009-05-28, 02:19:05,VALID,1002.55,VALID,0,VALID,87.427,VALID,0,VALID,25.0858,VALID,92,VALID,0.357812,
2009-05-28, 02:20:05,VALID,1002.51,VALID,0,VALID,87.488,VALID,0,VALID,25.0663,VALID,92,VALID,0.419922,
2009-05-28, 02:21:05,VALID,1002.55,VALID,0,VALID,87.6711,VALID,0,VALID,25.0255,VALID,92,VALID,0.173828,
2009-05-28, 02:22:05,VALID,1002.55,VALID,0,VALID,87.7092,VALID,0,VALID,25.0255,VALID,92,VALID,0.520703,
2009-05-28, 02:23:05,VALID,1002.55,VALID,0,VALID,87.6711,VALID,0.100563,VALID,25.0469,VALID,92,VALID,0.362891,
2009-05-28, 02:24:05,VALID,1002.55,VALID,0,VALID,87.7169,VALID,0,VALID,25.0274,VALID,92,VALID,0.367969,
2009-05-28, 02:25:05,VALID,1002.53,VALID,0,VALID,87.5338,VALID,0,VALID,24.9866,VALID,84,VALID,0.679688,
2009-05-28, 02:26:05,VALID,1002.54,VALID,0,VALID,87.7932,VALID,0,VALID,24.9866,VALID,56,VALID,0.642187,
2009-05-28, 02:27:05,VALID,1002.53,VALID,0,VALID,87.8847,VALID,0,VALID,24.969,VALID,49,VALID,0.381641,
2009-05-28, 02:28:05,VALID,1002.56,VALID,0,VALID,87.7779,VALID,0,VALID,24.9514,VALID,104,VALID,0.680469,
2009-05-28, 02:29:05,VALID,1002.59,VALID,0,VALID,87.7092,VALID,0,VALID,24.93,VALID,81,VALID,0.423828,
2009-05-28, 02:30:05,VALID,1002.58,VALID,0,VALID,87.7321,VALID,0,VALID,24.9319,VALID,84,VALID,0.683203,
2009-05-28, 02:31:05,VALID,1002.57,VALID,0,VALID,87.5567,VALID,0,VALID,24.9106,VALID,71,VALID,0.890234,
2009-05-28, 02:32:05,VALID,1002.58,VALID,0,VALID,87.427,VALID,0,VALID,24.93,VALID,72,VALID,0.940234,
2009-05-28, 02:33:05,VALID,1002.57,VALID,0,VALID,87.4727,VALID,0,VALID,24.9709,VALID,103,VALID,0.40625,
2009-05-28, 02:34:05,VALID,1002.55,VALID,0,VALID,87.4804,VALID,0,VALID,24.9495,VALID,103,VALID,0.764453,
2009-05-28, 02:35:04,VALID,1002.52,VALID,0,VALID,87.3736,VALID,0,VALID,24.9495,VALID,70,VALID,0.644531,
2009-05-28, 02:36:04,VALID,1002.5,VALID,0,VALID,87.2286,VALID,0,VALID,24.9495,VALID,88,VALID,0.844531,
2009-05-28, 02:37:04,VALID,1002.5,VALID,0,VALID,87.2515,VALID,0,VALID,24.9495,VALID,90,VALID,0.548828,
2009-05-28, 02:38:04,VALID,1002.48,VALID,0,VALID,87.2362,VALID,0,VALID,24.969,VALID,78,VALID,0.612109,
2009-05-28, 02:39:04,VALID,1002.48,VALID,0,VALID,87.3354,VALID,0,VALID,24.9495,VALID,72,VALID,0.509766,
2009-05-28, 02:40:04,VALID,1002.46,VALID,0,VALID,87.4956,VALID,0,VALID,24.93,VALID,73,VALID,0.656641,
2009-05-28, 02:41:04,VALID,1002.45,VALID,0,VALID,87.7016,VALID,0,VALID,24.93,VALID,95,VALID,0.394141,
2009-05-28, 02:42:04,VALID,1002.44,VALID,0,VALID,87.9152,VALID,0.100563,VALID,24.9087,VALID,56,VALID,0.55,
2009-05-28, 02:43:04,VALID,1002.43,VALID,0,VALID,88.0296,VALID,0,VALID,24.93,VALID,89,VALID,0.633984,
2009-05-28, 02:44:04,VALID,1002.44,VALID,0,VALID,88.0831,VALID,0,VALID,24.9282,VALID,63,VALID,0.9125,
2009-05-28, 02:45:04,VALID,1002.4,VALID,0,VALID,88.0373,VALID,0.100563,VALID,24.9282,VALID,95,VALID,0.977344,
2009-05-28, 02:46:04,VALID,1002.42,VALID,0,VALID,87.9839,VALID,0,VALID,24.969,VALID,82,VALID,0.627344,
2009-05-28, 02:47:04,VALID,1002.44,VALID,0,VALID,87.7092,VALID,0.100563,VALID,24.9671,VALID,89,VALID,0.706641,
2009-05-28, 02:48:04,VALID,1002.44,VALID,0,VALID,87.6635,VALID,0,VALID,24.9847,VALID,81,VALID,0.348828,
2009-05-28, 02:49:04,VALID,1002.42,VALID,0,VALID,87.5414,VALID,0,VALID,24.9866,VALID,53,VALID,0.675,
2009-05-28, 02:50:04,VALID,1002.44,VALID,0,VALID,87.6253,VALID,0,VALID,24.9866,VALID,39,VALID,0.766797,
2009-05-28, 02:51:04,VALID,1002.42,VALID,0,VALID,87.3278,VALID,0,VALID,24.9866,VALID,110,VALID,0.669531,
2009-05-28, 02:52:04,VALID,1002.45,VALID,0,VALID,87.1981,VALID,0,VALID,25.006,VALID,96,VALID,0.755469,
2009-05-28, 02:53:04,VALID,1002.47,VALID,0,VALID,87.16,VALID,0,VALID,25.006,VALID,100,VALID,0.444922,
2009-05-28, 02:54:04,VALID,1002.45,VALID,0,VALID,87.2134,VALID,0,VALID,25.006,VALID,98,VALID,0.982422,
2009-05-28, 02:55:04,VALID,1002.42,VALID,0,VALID,87.1752,VALID,0,VALID,24.9866,VALID,86,VALID,0.522266,
2009-05-28, 02:56:04,VALID,1002.47,VALID,0,VALID,87.1981,VALID,0.100563,VALID,24.9671,VALID,95,VALID,0.631641,
2009-05-28, 02:57:04,VALID,1002.47,VALID,0,VALID,87.2134,VALID,0,VALID,24.9495,VALID,93,VALID,0.533203,
2009-05-28, 02:58:04,VALID,1002.44,VALID,0,VALID,87.0608,VALID,0,VALID,24.9495,VALID,99,VALID,1.10586,
2009-05-28, 02:59:04,VALID,1002.46,VALID,0,VALID,86.9387,VALID,0,VALID,24.9904,VALID,95,VALID,1.01641,
2009-05-28, 03:00:04,VALID,1002.42,VALID,0,VALID,86.8319,VALID,0,VALID,25.0098,VALID,67,VALID,0.942578,
2009-05-28, 03:01:04,VALID,1002.44,VALID,0,VALID,86.8243,VALID,0,VALID,24.9885,VALID,90,VALID,0.462891,
2009-05-28, 03:02:04,VALID,1002.44,VALID,0,VALID,86.8319,VALID,0,VALID,24.9495,VALID,48,VALID,0.48125,
2009-05-28, 03:03:04,VALID,1002.47,VALID,0,VALID,87.0913,VALID,0,VALID,24.9495,VALID,47,VALID,0.234375,
2009-05-28, 03:04:04,VALID,1002.45,VALID,0,VALID,87.221,VALID,0,VALID,24.93,VALID,47,VALID,0.160156,
2009-05-28, 03:05:04,VALID,1002.47,VALID,0,VALID,87.2439,VALID,0,VALID,24.9106,VALID,13,VALID,0.247656,
2009-05-28, 03:06:04,VALID,1002.45,VALID,0,VALID,87.1676,VALID,0,VALID,24.8716,VALID,69,VALID,0.521094,
2009-05-28, 03:07:04,VALID,1002.49,VALID,0,VALID,86.809,VALID,0,VALID,24.8892,VALID,105,VALID,1.02344,
2009-05-28, 03:08:04,VALID,1002.46,VALID,0,VALID,86.7175,VALID,0,VALID,24.93,VALID,99,VALID,0.615234,
2009-05-28, 03:09:04,VALID,1002.44,VALID,0,VALID,86.7633,VALID,0,VALID,24.9282,VALID,97,VALID,0.471094,
2009-05-28, 03:10:04,VALID,1002.44,VALID,0,VALID,86.5115,VALID,0,VALID,24.9709,VALID,99,VALID,0.818359,
2009-05-28, 03:11:04,VALID,1002.43,VALID,0,VALID,86.4505,VALID,0,VALID,24.9885,VALID,83,VALID,0.520703,
2009-05-28, 03:12:04,VALID,1002.43,VALID,0,VALID,86.1606,VALID,0,VALID,25.0488,VALID,85,VALID,0.391797,
2009-05-28, 03:13:04,VALID,1002.44,VALID,0,VALID,86.069,VALID,0,VALID,25.0274,VALID,85,VALID,0.45625,
2009-05-28, 03:14:04,VALID,1002.45,VALID,0,VALID,86.1606,VALID,0,VALID,25.0274,VALID,96,VALID,0.604688,
2009-05-28, 03:15:04,VALID,1002.44,VALID,0,VALID,86.1529,VALID,0,VALID,25.0079,VALID,112,VALID,0.801953,
2009-05-28, 03:16:04,VALID,1002.46,VALID,0,VALID,86.2369,VALID,0,VALID,25.0274,VALID,122,VALID,0.898828,
2009-05-28, 03:17:04,VALID,1002.47,VALID,0,VALID,86.2292,VALID,0,VALID,25.0488,VALID,114,VALID,0.559375,
2009-05-28, 03:18:04,VALID,1002.48,VALID,0,VALID,86.1758,VALID,0,VALID,25.0682,VALID,113,VALID,0.583984,
2009-05-28, 03:19:04,VALID,1002.51,VALID,0,VALID,85.6037,VALID,0,VALID,25.0663,VALID,133,VALID,1.53125,
2009-05-28, 03:20:04,VALID,1002.51,VALID,0,VALID,85.2756,VALID,0,VALID,25.1656,VALID,120,VALID,0.8375,
2009-05-28, 03:21:04,VALID,1002.5,VALID,0,VALID,85.001,VALID,0,VALID,25.1813,VALID,87,VALID,0.471094,
2009-05-28, 03:22:04,VALID,1002.49,VALID,0,VALID,84.6119,VALID,0,VALID,25.2221,VALID,97,VALID,1.21445,
2009-05-28, 03:23:04,VALID,1002.51,VALID,0,VALID,84.4059,VALID,0,VALID,25.2806,VALID,89,VALID,0.58125,
2009-05-28, 03:24:04,VALID,1002.53,VALID,0,VALID,84.5967,VALID,0,VALID,25.2806,VALID,94,VALID,0.897656,
2009-05-28, 03:25:04,VALID,1002.52,VALID,0,VALID,84.9094,VALID,0,VALID,25.2416,VALID,89,VALID,0.655469,
2009-05-28, 03:26:04,VALID,1002.52,VALID,0,VALID,85.3748,VALID,0,VALID,25.2221,VALID,90,VALID,0.286328,
2009-05-28, 03:27:04,VALID,1002.53,VALID,0,VALID,85.6037,VALID,0,VALID,25.1851,VALID,78,VALID,0.702344,
2009-05-28, 03:28:04,VALID,1002.57,VALID,0,VALID,85.9241,VALID,0,VALID,25.0858,VALID,88,VALID,0.457031,
2009-05-28, 03:29:04,VALID,1002.57,VALID,0,VALID,86.3513,VALID,0,VALID,25.0274,VALID,57,VALID,0.290234,
2009-05-28, 03:30:04,VALID,1002.57,VALID,0,VALID,86.6412,VALID,0,VALID,24.9885,VALID,73,VALID,0.396484,
2009-05-28, 03:31:04,VALID,1002.57,VALID,0,VALID,86.8624,VALID,0,VALID,24.9495,VALID,73,VALID,0.456641,
2009-05-28, 03:32:04,VALID,1002.55,VALID,0,VALID,86.9769,VALID,0,VALID,24.8911,VALID,67,VALID,0.785547,
2009-05-28, 03:33:04,VALID,1002.56,VALID,0,VALID,87.1371,VALID,0,VALID,24.8716,VALID,83,VALID,0.34375,
2009-05-28, 03:34:04,VALID,1002.57,VALID,0,VALID,87.282,VALID,0,VALID,24.8522,VALID,83,VALID,0.0628906,
2009-05-28, 03:35:04,VALID,1002.58,VALID,0,VALID,87.4499,VALID,0,VALID,24.8327,VALID,73,VALID,0.228125,
2009-05-28, 03:36:04,VALID,1002.56,VALID,0,VALID,87.549,VALID,0,VALID,24.8132,VALID,73,VALID,0,
2009-05-28, 03:37:04,VALID,1002.57,VALID,0,VALID,87.6635,VALID,0,VALID,24.7937,VALID,73,VALID,0.0015625,
2009-05-28, 03:38:04,VALID,1002.58,VALID,0,VALID,87.7855,VALID,0,VALID,24.8151,VALID,87,VALID,0.321484,
2009-05-28, 03:39:04,VALID,1002.58,VALID,0,VALID,87.8237,VALID,0,VALID,24.7956,VALID,86,VALID,0.401953,
2009-05-28, 03:40:04,VALID,1002.59,VALID,0,VALID,87.8618,VALID,0,VALID,24.7548,VALID,86,VALID,0.01875,
2009-05-28, 03:41:04,VALID,1002.59,VALID,0,VALID,87.8237,VALID,0,VALID,24.7956,VALID,57,VALID,0.391797,
2009-05-28, 03:42:04,VALID,1002.61,VALID,0,VALID,87.7779,VALID,0,VALID,24.8151,VALID,110,VALID,0.608594,
2009-05-28, 03:43:04,VALID,1002.61,VALID,0,VALID,87.7932,VALID,0,VALID,24.8346,VALID,109,VALID,0.207031,
2009-05-28, 03:44:04,VALID,1002.63,VALID,0,VALID,87.8313,VALID,0,VALID,24.8132,VALID,65,VALID,0.316797,
2009-05-28, 03:45:04,VALID,1002.62,VALID,0,VALID,88.1899,VALID,0,VALID,24.7937,VALID,64,VALID,0.528125,
2009-05-28, 03:46:04,VALID,1002.64,VALID,0,VALID,88.5408,VALID,0,VALID,24.7761,VALID,23,VALID,0.716797,